Stations météo

Publicité
Saint-Brieuc, France (7120): Température de l'air & dewpoint: 10.02.2019 09:00:00 - 16.02.2019 09:00:00 (CET)Saint-Brieuc, France (7120): Température de l'air 5cm: 10.02.2019 09:00:00 - 16.02.2019 09:00:00 (CET)Saint-Brieuc, France (7120): Température de l'air -20cm & Température de l'air -100cm: 10.02.2019 09:00:00 - 16.02.2019 09:00:00 (CET)Saint-Brieuc, France (7120): Vitesse du vent & gusts: 10.02.2019 09:00:00 - 16.02.2019 09:00:00 (CET)Saint-Brieuc, France (7120): Direction du vent: 10.02.2019 09:00:00 - 16.02.2019 09:00:00 (CET)Saint-Brieuc, France (7120): reduced air pressure: 10.02.2019 09:00:00 - 16.02.2019 09:00:00 (CET)Saint-Brieuc, France (7120): visibility: 10.02.2019 09:00:00 - 16.02.2019 09:00:00 (CET)Saint-Brieuc, France (7120): Ensoleillement: 10.02.2019 09:00:00 - 16.02.2019 09:00:00 (CET)Saint-Brieuc, France (7120): Quantités de précipitations: 10.02.2019 09:00:00 - 16.02.2019 09:00:00 (CET)
Date & Time tt [°C] td [°C] tt 5cm [°C] tt -20cm [°C] tt -100cm [°C] ff [km/h] ff [knt] fx [km/h] fx [knt] dd ppp [hPa] vv [km] sd [min] rr [mm]
16.02.2019 09:00:00 - - - - - - - - - - - - - -
16.02.2019 08:00:00 6,7 6,0 3,0 6,8 8,2 8 4 13 7 S 1025,3 10 0 0,0
16.02.2019 07:00:00 4,7 4,3 1,4 6,9 8,2 5 3 15 8 SW 1025,2 10 0 0,0
16.02.2019 06:00:00 7,0 5,5 5,1 6,9 8,2 13 7 20 11 S 1024,9 14 0 0,0
16.02.2019 05:00:00 6,4 4,9 5,1 7,0 8,2 9 5 18 10 SSW 1024,8 15 0 0,0
16.02.2019 04:00:00 7,0 3,8 4,5 7,1 8,2 8 4 14 8 SSW 1025,2 20 0 0,0
16.02.2019 03:00:00 7,7 3,4 3,4 7,2 8,2 8 5 16 9 SSW 1025,2 20 0 0,0
16.02.2019 02:00:00 7,2 2,3 4,4 7,3 8,2 8 4 17 9 SSW 1025,6 20 0 0,0
16.02.2019 01:00:00 7,5 3,2 4,0 7,4 8,2 8 5 18 10 SSW 1025,5 20 0 0,0
16.02.2019 00:00:00 7,2 3,2 4,3 7,5 8,2 6 3 23 12 S 1025,8 20 0 0,0
15.02.2019 23:00:00 7,9 4,3 3,5 7,6 8,2 11 6 21 11 SW 1026,0 20 0 0,0
15.02.2019 22:00:00 8,4 5,0 6,7 7,6 8,2 10 6 22 12 S 1025,6 19 0 0,0
15.02.2019 21:00:00 8,8 5,9 7,2 7,7 8,2 13 7 29 16 S 1025,4 17 0 0,0
15.02.2019 20:00:00 10,3 5,7 8,6 7,7 8,2 13 7 22 12 S 1025,5 20 0 0,0
15.02.2019 19:00:00 11,4 5,3 9,1 7,6 8,2 10 5 21 11 S 1025,2 20 7 0,0
15.02.2019 18:00:00 13,9 6,0 13,6 7,5 8,2 7 4 23 13 S 1024,6 20 60 0,0
15.02.2019 17:00:00 15,4 4,4 14,8 7,4 8,3 11 6 22 12 S 1024,6 20 60 0,0
15.02.2019 16:00:00 16,2 4,9 18,9 7,0 8,2 10 6 29 16 S 1024,5 20 60 0,0
15.02.2019 15:00:00 16,4 2,4 18,4 6,8 8,2 10 5 26 14 SSW 1024,8 20 60 0,0
15.02.2019 14:00:00 15,6 5,5 17,7 6,5 8,2 12 7 26 14 S 1025,5 20 60 0,0
15.02.2019 13:00:00 14,6 4,6 16,4 6,3 8,2 16 9 27 14 S 1026,1 20 60 0,0
15.02.2019 12:00:00 13,3 5,9 13,8 6,2 8,3 14 8 28 15 SSE 1026,7 20 60 0,0
15.02.2019 11:00:00 11,0 4,9 10,7 6,2 8,3 16 9 28 15 S 1026,9 20 60 0,0
15.02.2019 10:00:00 8,4 4,0 7,4 6,2 8,3 13 7 22 12 SSE 1027,3 20 60 0,0
15.02.2019 09:00:00 6,1 2,5 3,8 6,3 8,2 12 6 21 11 S 1027,2 20 16 0,0
15.02.2019 08:00:00 5,1 1,8 3,7 6,4 8,3 9 5 18 10 S 1026,9 20 0 0,0
15.02.2019 07:00:00 5,2 2,2 3,3 6,4 8,2 10 5 24 13 S 1026,9 20 0 0,0
15.02.2019 06:00:00 6,3 2,7 4,3 6,5 8,3 15 8 23 13 S 1026,7 20 0 0,0
15.02.2019 05:00:00 6,2 3,2 4,7 6,5 8,2 14 7 21 11 SSE 1026,7 20 0 0,0
15.02.2019 04:00:00 6,3 3,5 4,7 6,6 8,3 14 8 20 11 SSE 1027,0 20 0 0,0
15.02.2019 03:00:00 7,0 3,8 5,7 6,7 8,3 13 7 23 13 SSE 1027,3 19 0 0,0
15.02.2019 02:00:00 7,1 4,1 4,8 6,7 8,3 11 6 19 10 S 1027,6 19 0 0,0
15.02.2019 01:00:00 6,1 3,6 4,6 6,8 8,3 9 5 16 9 SSE 1027,7 16 0 0,0
15.02.2019 00:00:00 6,4 3,9 4,6 6,9 8,3 13 7 21 11 SSE 1027,8 16 0 0,0
14.02.2019 23:00:00 7,0 4,1 5,4 7,0 8,3 14 7 21 12 SSE 1028,0 18 0 0,0
14.02.2019 22:00:00 7,2 4,2 5,3 7,0 8,3 10 6 17 9 SSE 1028,1 17 0 0,0
14.02.2019 21:00:00 7,7 3,7 5,8 7,0 8,3 10 6 20 11 SSE 1028,3 19 0 0,0
14.02.2019 20:00:00 8,4 3,8 6,1 7,0 8,3 11 6 18 10 SSE 1028,2 20 0 0,0
14.02.2019 19:00:00 9,0 3,8 6,6 7,0 8,3 10 5 18 10 SSE 1028,2 20 5 0,0
14.02.2019 18:00:00 10,9 3,4 10,8 6,8 8,3 12 6 23 12 SSE 1028,0 20 60 0,0
14.02.2019 17:00:00 12,8 4,0 12,7 6,7 8,3 13 7 23 12 SSE 1027,9 20 60 0,0
14.02.2019 16:00:00 13,2 4,1 15,9 6,4 8,3 14 8 26 14 SSE 1027,8 20 60 0,0
14.02.2019 15:00:00 13,2 3,8 14,9 6,1 8,3 13 7 29 16 S 1028,1 20 60 0,0
14.02.2019 14:00:00 12,5 3,7 14,3 5,9 8,3 14 8 23 12 SSE 1028,9 20 60 0,0
14.02.2019 13:00:00 11,5 3,5 13,0 5,7 8,3 16 9 23 12 SE 1029,9 20 60 0,0
14.02.2019 12:00:00 9,8 3,1 11,1 5,6 8,3 13 7 22 12 SSE 1030,5 20 60 0,0
14.02.2019 11:00:00 7,3 3,2 7,2 5,7 8,3 9 5 16 8 SSE 1030,8 19 60 0,0
14.02.2019 10:00:00 4,5 1,2 2,8 5,8 8,3 7 4 18 10 SSE 1031,0 15 60 0,0
14.02.2019 09:00:00 2,0 0,4 -3,6 5,9 8,3 12 6 21 11 SSE 1031,0 12 14 0,0
14.02.2019 08:00:00 -0,5 -1,9 -3,7 6,0 8,3 0 0 9 5 N 1031,0 4,8 0 0,0
14.02.2019 07:00:00 1,2 0,2 -2,9 6,1 8,3 2 1 8 4 SSE 1030,8 14 0 0,0
14.02.2019 06:00:00 1,5 0,6 -3,0 6,3 8,3 4 2 6 4 S 1031,0 18 0 0,0
14.02.2019 05:00:00 2,2 0,9 -2,1 6,4 8,3 2 1 6 3 SSE 1031,2 18 0 0,0
14.02.2019 04:00:00 2,2 0,6 -1,2 6,6 8,3 4 2 10 5 SSE 1031,3 19 0 0,0
14.02.2019 03:00:00 3,1 1,1 1,4 6,7 8,3 9 5 14 8 SSE 1031,3 18 0 0,0
14.02.2019 02:00:00 3,3 1,2 0,3 6,8 8,3 9 5 14 7 SSE 1031,8 18 0 0,0
14.02.2019 01:00:00 3,4 1,1 1,6 6,9 8,3 4 2 14 8 SSE 1032,1 16 0 0,0
14.02.2019 00:00:00 4,2 1,7 2,6 7,0 8,3 9 5 16 9 SSE 1032,0 17 0 0,0
13.02.2019 23:00:00 5,0 2,0 3,1 7,1 8,3 10 5 17 9 SSE 1032,0 19 0 0,0
13.02.2019 22:00:00 5,8 2,1 3,7 7,2 8,3 11 6 18 10 SSE 1031,8 19 0 0,0
13.02.2019 21:00:00 5,7 2,5 3,5 7,3 8,3 8 5 12 7 SSE 1032,1 18 0 0,0
13.02.2019 20:00:00 6,8 2,9 3,0 7,4 8,3 5 3 9 5 SE 1032,1 20 0 0,0
13.02.2019 19:00:00 7,9 2,6 2,8 7,3 8,3 4 2 7 4 ESE 1031,9 18 4 0,0
13.02.2019 18:00:00 10,5 2,8 10,7 7,2 8,3 5 3 12 7 SSE 1031,7 20 60 0,0
13.02.2019 17:00:00 11,4 2,7 11,8 7,1 8,3 8 5 18 10 SSE 1031,7 20 60 0,0
13.02.2019 16:00:00 11,6 2,3 13,9 6,8 8,3 10 6 22 12 S 1031,9 20 60 0,0
13.02.2019 15:00:00 11,5 3,0 14,5 6,6 8,3 11 6 23 13 S 1032,4 20 60 0,0
13.02.2019 14:00:00 11,1 3,1 13,8 6,4 8,3 13 7 28 15 S 1032,6 20 60 0,0
13.02.2019 13:00:00 10,3 3,8 12,2 6,3 8,3 14 7 31 17 S 1033,2 20 60 0,0
13.02.2019 12:00:00 9,3 3,5 10,1 6,2 8,3 19 10 36 19 S 1033,5 20 60 0,0
13.02.2019 11:00:00 7,5 3,4 7,8 6,2 8,3 17 9 31 17 S 1033,4 20 60 0,0
13.02.2019 10:00:00 5,4 2,6 3,7 6,3 8,3 15 8 25 14 S 1033,7 20 57 0,0
13.02.2019 09:00:00 3,4 1,9 1,9 6,4 8,3 14 8 23 12 S 1033,9 19 13 0,0
13.02.2019 08:00:00 3,2 1,7 2,1 6,5 8,3 9 5 21 12 SSE 1033,9 19 0 0,0
13.02.2019 07:00:00 3,5 1,9 2,0 6,6 8,3 12 7 20 11 S 1033,8 19 0 0,0
13.02.2019 06:00:00 3,0 1,8 1,9 6,7 8,3 11 6 17 9 SSE 1033,9 16 0 0,0
13.02.2019 05:00:00 3,4 2,5 1,7 6,8 8,3 11 6 17 9 SSE 1034,2 15 0 0,0
13.02.2019 04:00:00 3,9 2,9 2,4 6,9 8,3 12 6 18 10 S 1034,6 15 0 0,0
13.02.2019 03:00:00 4,3 3,1 2,7 7,0 8,3 7 4 11 6 S 1034,6 14 0 0,0
13.02.2019 02:00:00 4,2 3,2 2,6 7,1 8,3 7 4 14 8 S 1034,7 12 0 0,0
13.02.2019 01:00:00 4,6 3,6 1,7 7,2 8,3 8 4 14 7 S 1034,9 13 0 0,0
13.02.2019 00:00:00 4,4 3,5 1,7 7,3 8,3 7 4 11 6 SSE 1035,1 10 0 0,0
12.02.2019 23:00:00 5,5 3,7 3,0 7,4 8,3 8 4 14 8 SE 1035,3 15 0 0,0
12.02.2019 22:00:00 5,7 3,5 3,4 7,5 8,3 7 4 14 7 SSE 1035,3 20 0 0,0
12.02.2019 21:00:00 6,1 4,4 4,5 7,6 8,3 8 4 13 7 S 1035,4 14 0 0,0
12.02.2019 20:00:00 7,1 4,6 4,5 7,7 8,3 6 4 10 6 S 1035,3 19 0 0,0
12.02.2019 19:00:00 8,4 4,4 5,3 7,6 8,3 5 3 14 8 SSE 1034,9 20 2 0,0
12.02.2019 18:00:00 10,4 4,7 9,0 7,5 8,3 4 2 7 4 ESE 1034,6 20 60 0,0
12.02.2019 17:00:00 12,8 2,3 13,3 7,3 8,3 3 1 13 7 SSW 1034,4 20 60 0,0
12.02.2019 16:00:00 12,6 3,3 15,0 7,1 8,3 7 4 16 8 SSW 1034,4 20 60 0,0
12.02.2019 15:00:00 12,5 4,5 - 6,8 8,3 4 2 14 7 SW 1034,5 20 60 0,0
12.02.2019 14:00:00 11,6 4,1 13,5 6,7 8,4 7 4 20 11 SW 1034,9 20 60 -
12.02.2019 13:00:00 10,7 3,7 12,6 6,5 8,4 7 4 16 9 SW 1035,4 20 60 0,0
12.02.2019 12:00:00 9,7 4,9 11,5 6,4 8,4 13 7 22 12 WSW 1035,8 20 58 0,0
12.02.2019 11:00:00 8,6 4,4 9,1 6,4 8,4 8 4 - - SSW 1035,7 20 60 0,0
12.02.2019 10:00:00 6,6 3,6 5,8 6,4 8,4 7 4 15 8 SSW 1035,7 20 60 0,0
12.02.2019 09:00:00 4,6 2,5 2,6 6,5 8,4 8 4 16 9 SSW 1035,3 20 11 0,0
12.02.2019 08:00:00 4,1 2,1 2,3 6,6 8,4 8 5 15 8 SSE 1034,8 20 0 0,0
12.02.2019 07:00:00 4,3 2,5 2,7 6,7 8,4 8 5 16 8 S 1034,7 20 0 0,0
12.02.2019 06:00:00 4,2 2,7 2,6 6,8 8,4 8 4 15 8 SSW 1034,7 20 0 0,0
12.02.2019 05:00:00 4,4 2,7 2,0 6,8 8,4 6 3 13 7 S 1034,8 20 0 0,0
12.02.2019 04:00:00 4,6 2,9 3,3 6,9 8,4 8 4 13 7 S 1034,6 20 0 0,0
12.02.2019 03:00:00 4,3 3,3 2,1 7,0 8,4 7 4 12 7 SW 1034,7 20 0 0,0
12.02.2019 02:00:00 4,4 2,6 2,9 7,1 8,4 8 4 13 7 SSE 1034,9 18 0 0,0
12.02.2019 01:00:00 4,7 3,4 1,7 7,2 8,4 7 4 10 5 SSW 1034,6 20 0 0,0
12.02.2019 00:00:00 5,0 3,3 2,5 7,3 8,4 6 3 12 7 SSW 1034,2 20 0 0,0
11.02.2019 23:00:00 4,9 3,9 1,0 7,4 8,4 7 4 14 8 S 1034,0 15 0 0,0
11.02.2019 22:00:00 5,0 3,7 1,0 7,5 8,4 3 2 8 4 S 1033,9 13 0 0,0
11.02.2019 21:00:00 5,8 4,3 2,9 7,6 8,4 4 2 8 4 S 1033,4 13 0 0,0
11.02.2019 20:00:00 5,8 4,4 2,9 7,6 8,4 0 0 6 3 N 1033,0 16 0 0,0
11.02.2019 19:00:00 6,5 4,5 3,9 7,6 8,4 3 1 13 7 NE 1032,4 20 0 0,0
11.02.2019 18:00:00 8,0 5,1 7,9 7,5 8,4 11 6 21 11 N 1031,6 20 32 0,0
11.02.2019 17:00:00 9,1 5,3 10,1 7,4 8,4 14 7 23 12 NNE 1030,7 20 35 0,0
11.02.2019 16:00:00 10,0 5,4 10,9 7,2 8,4 14 8 24 13 NW 1030,1 19 45 0,0
11.02.2019 15:00:00 9,6 5,9 10,5 7,0 8,4 16 9 24 13 NNE 1029,6 20 17 0,0
11.02.2019 14:00:00 9,8 5,6 10,5 6,9 8,4 16 8 27 15 N 1029,1 20 20 0,0
11.02.2019 13:00:00 9,8 6,7 8,5 6,7 8,3 17 9 39 21 NNW 1028,7 19 31 0,0
11.02.2019 12:00:00 10,0 6,0 9,2 6,6 8,4 22 12 33 18 NW 1027,9 19 20 0,0
11.02.2019 11:00:00 8,8 5,4 7,6 6,6 8,4 22 12 36 19 WNW 1027,1 19 21 0,0
11.02.2019 10:00:00 7,4 4,7 6,5 6,6 8,4 14 8 22 12 NW 1025,9 18 20 0,0
11.02.2019 09:00:00 7,0 4,5 5,9 6,6 8,4 17 9 30 16 WNW 1024,8 20 0 0,0
11.02.2019 08:00:00 6,6 5,1 5,4 6,5 8,4 14 8 27 15 WNW 1023,4 15 0 0,0
11.02.2019 07:00:00 6,8 5,1 5,5 6,5 8,3 19 11 37 20 WNW 1022,7 17 0 0,2
11.02.2019 06:00:00 6,6 4,9 4,4 6,5 8,3 20 11 36 19 WNW 1021,7 12 0 0,8
11.02.2019 05:00:00 5,3 3,9 4,3 6,6 8,3 14 8 30 16 W 1021,2 9 0 0,2
11.02.2019 04:00:00 5,4 2,9 3,6 6,7 8,3 14 7 27 15 WSW 1020,5 18 0 0,0
11.02.2019 03:00:00 4,6 2,1 2,6 6,8 8,3 13 7 26 14 WSW 1020,3 20 0 0,0
11.02.2019 02:00:00 4,0 1,9 2,5 6,9 8,3 16 9 29 16 W 1019,7 20 0 0,0
11.02.2019 01:00:00 4,8 2,5 2,7 6,9 8,3 18 10 29 16 W 1019,0 20 0 0,0
11.02.2019 00:00:00 3,9 2,6 2,8 7,1 8,3 17 9 40 22 W 1018,3 20 0 0,4
10.02.2019 23:00:00 4,5 2,7 2,9 7,1 8,3 23 12 38 20 W 1017,8 7 0 0,4
10.02.2019 22:00:00 4,0 2,0 3,2 7,2 8,3 19 11 46 25 W 1016,8 20 0 0,0
10.02.2019 21:00:00 5,2 2,7 3,0 7,3 8,3 21 11 36 20 WSW 1016,1 20 0 0,0
10.02.2019 20:00:00 5,4 2,4 4,3 7,4 8,3 20 11 35 19 NW 1015,6 18 0 0,2
10.02.2019 19:00:00 5,7 2,2 4,8 7,5 8,3 22 12 48 26 W 1014,1 20 0 0,0
10.02.2019 18:00:00 6,1 1,6 5,1 7,6 8,3 30 16 54 29 WNW 1012,6 20 24 0,0
10.02.2019 17:00:00 6,8 3,0 4,3 7,6 8,3 25 14 46 25 W 1011,4 20 34 0,0
10.02.2019 16:00:00 5,1 2,4 4,3 7,6 8,3 42 23 76 41 NW 1010,9 18 5 0,2
10.02.2019 15:00:00 8,0 2,9 5,0 7,6 8,3 39 21 71 38 WNW 1008,6 19 37 0,0
10.02.2019 14:00:00 6,1 3,8 5,0 7,5 8,3 41 22 78 42 WNW 1007,1 9 17 1,2
10.02.2019 13:00:00 6,8 4,3 5,7 7,5 8,3 40 22 66 36 W 1005,0 13 32 0,2
10.02.2019 12:00:00 7,0 4,1 4,6 7,5 8,3 32 18 58 32 W 1003,7 20 37 0,2
10.02.2019 11:00:00 5,1 3,4 4,3 7,6 8,3 39 21 63 34 W 1002,7 4,3 17 1,0
10.02.2019 10:00:00 5,9 3,2 4,7 7,7 8,3 29 16 57 31 W 1001,0 20 24 0,2
10.02.2019 09:00:00 5,9 3,1 4,7 7,8 8,2 31 17 66 35 W 999,2 20 0 0,4

tt = Température de l'air
td = dewpoint
tt 5cm = Température de l'air 5cm
tt -20cm = Température de l'air -20cm
tt -100cm = Température de l'air -100cm
ff = Vitesse du vent
fx = gusts
dd = Direction du vent
ppp = reduced air pressure
vv = visibility
sd = Ensoleillement
rr = Quantités de précipitations

stations d'obs. à proximité